Time,TemperatureF,DewpointF,PressureIn,WindDirection,WindDirectionDegrees,WindSpeedMPH,WindSpeedGustMPH,Humidity,HourlyPrecipIn,Conditions,Clouds,dailyrainin,SolarRadiationWatts/m^2,SoftwareType,DateUTC
2013-02-27 00:05:00,30.8,29.0,30.65,NNE,13,1.0,-999.0,93,-99.99,,,0.00,0,weatherlink.com 1.10,2013-02-27 00:05:00,
2013-02-27 00:20:00,31.4,30.0,30.65,NNE,14,0.0,-999.0,94,-99.99,,,0.00,0,weatherlink.com 1.10,2013-02-27 00:20:00,
2013-02-27 00:35:00,32.3,31.0,30.65,NNE,23,0.0,-999.0,95,-99.99,,,0.00,0,weatherlink.com 1.10,2013-02-27 00:35:00,
2013-02-27 00:50:00,33.1,32.0,30.65,NNE,17,2.0,-999.0,95,-99.99,,,0.00,0,weatherlink.com 1.10,2013-02-27 00:50:00,
2013-02-27 01:05:00,33.7,33.0,30.65,NNW,346,3.0,-999.0,95,-99.99,,,0.00,0,weatherlink.com 1.10,2013-02-27 01:05:00,
2013-02-27 01:20:00,33.8,33.0,30.65,North,9,2.0,-999.0,96,-99.99,,,0.00,0,weatherlink.com 1.10,2013-02-27 01:20:00,
2013-02-27 01:35:00,33.8,33.0,30.64,NNE,31,2.0,-999.0,96,-99.99,,,0.00,0,weatherlink.com 1.10,2013-02-27 01:35:00,
2013-02-27 01:50:00,33.6,32.0,30.64,NNW,336,2.0,-999.0,95,-99.99,,,0.00,0,weatherlink.com 1.10,2013-02-27 01:50:00,
2013-02-27 02:06:00,33.1,32.0,30.64,NNW,336,3.0,-999.0,96,-99.99,,,0.00,0,weatherlink.com 1.10,2013-02-27 02:06:00,
2013-02-27 02:21:00,33.0,32.0,30.64,NNW,333,3.0,-999.0,96,-99.99,,,0.00,0,weatherlink.com 1.10,2013-02-27 02:21:00,
2013-02-27 02:36:00,33.0,32.0,30.64,North,9,4.0,-999.0,96,-99.99,,,0.00,0,weatherlink.com 1.10,2013-02-27 02:36:00,
2013-02-27 02:51:00,32.8,32.0,30.64,NNW,327,2.0,-999.0,96,-99.99,,,0.00,0,weatherlink.com 1.10,2013-02-27 02:51:00,
2013-02-27 03:06:00,32.7,32.0,30.63,NNW,341,1.0,-999.0,96,-99.99,,,0.00,0,weatherlink.com 1.10,2013-02-27 03:06:00,
2013-02-27 03:21:00,32.4,31.0,30.63,NNW,347,2.0,-999.0,96,-99.99,,,0.00,0,weatherlink.com 1.10,2013-02-27 03:21:00,
2013-02-27 03:36:00,32.1,31.0,30.63,NNW,332,3.0,-999.0,96,-99.99,,,0.00,0,weatherlink.com 1.10,2013-02-27 03:36:00,
2013-02-27 03:51:00,31.9,31.0,30.62,North,350,2.0,-999.0,96,-99.99,,,0.00,0,weatherlink.com 1.10,2013-02-27 03:51:00,
2013-02-27 04:06:00,31.9,31.0,30.63,NNW,348,3.0,-999.0,96,-99.99,,,0.00,0,weatherlink.com 1.10,2013-02-27 04:06:00,
2013-02-27 04:21:00,32.1,31.0,30.62,NNW,344,3.0,-999.0,97,-99.99,,,0.00,0,weatherlink.com 1.10,2013-02-27 04:21:00,
2013-02-27 04:36:00,32.1,31.0,30.62,North,355,1.0,-999.0,97,-99.99,,,0.00,0,weatherlink.com 1.10,2013-02-27 04:36:00,
2013-02-27 04:51:00,32.2,32.0,30.62,NNW,347,2.0,-999.0,97,-99.99,,,0.00,0,weatherlink.com 1.10,2013-02-27 04:51:00,
2013-02-27 05:06:00,32.2,32.0,30.62,North,355,3.0,-999.0,97,-99.99,,,0.00,0,weatherlink.com 1.10,2013-02-27 05:06:00,
2013-02-27 05:21:00,32.0,31.0,30.63,North,355,1.0,-999.0,97,-99.99,,,0.00,0,weatherlink.com 1.10,2013-02-27 05:21:00,
2013-02-27 05:51:00,31.5,31.0,30.63,NW,325,3.0,-999.0,97,-99.99,,,0.00,0,weatherlink.com 1.10,2013-02-27 05:51:00,
2013-02-27 06:06:00,31.4,31.0,30.63,NNW,331,2.0,-999.0,97,-99.99,,,0.00,0,weatherlink.com 1.10,2013-02-27 06:06:00,
2013-02-27 06:21:00,31.3,31.0,30.63,NNW,333,2.0,-999.0,97,-99.99,,,0.00,0,weatherlink.com 1.10,2013-02-27 06:21:00,
2013-02-27 06:36:00,31.1,30.0,30.63,NNW,331,3.0,-999.0,97,-99.99,,,0.00,0,weatherlink.com 1.10,2013-02-27 06:36:00,
2013-02-27 06:51:00,30.7,30.0,30.63,NNW,331,1.0,-999.0,97,-99.99,,,0.00,0,weatherlink.com 1.10,2013-02-27 06:51:00,
2013-02-27 07:06:00,30.4,30.0,30.63,NW,321,1.0,-999.0,97,-99.99,,,0.00,0,weatherlink.com 1.10,2013-02-27 07:06:00,
2013-02-27 07:21:00,30.0,29.0,30.63,NW,321,2.0,-999.0,97,-99.99,,,0.00,0,weatherlink.com 1.10,2013-02-27 07:21:00,
2013-02-27 07:36:00,30.0,29.0,30.63,NW,321,2.0,-999.0,97,-99.99,,,0.00,9,weatherlink.com 1.10,2013-02-27 07:36:00,
2013-02-27 07:51:00,30.1,29.0,30.63,NW,321,0.0,-999.0,97,-99.99,,,0.00,14,weatherlink.com 1.10,2013-02-27 07:51:00,
2013-02-27 08:06:00,30.3,30.0,30.64,NW,321,0.0,-999.0,97,-99.99,,,0.00,25,weatherlink.com 1.10,2013-02-27 08:06:00,
2013-02-27 08:21:00,30.5,30.0,30.64,NW,321,3.0,-999.0,97,-99.99,,,0.00,30,weatherlink.com 1.10,2013-02-27 08:21:00,
2013-02-27 08:36:00,30.7,30.0,30.64,NNW,331,2.0,-999.0,97,-99.99,,,0.00,37,weatherlink.com 1.10,2013-02-27 08:36:00,
2013-02-27 08:51:00,30.8,30.0,30.64,NNW,331,2.0,-999.0,97,-99.99,,,0.00,54,weatherlink.com 1.10,2013-02-27 08:51:00,
2013-02-27 09:06:00,31.1,30.0,30.64,NNW,331,1.0,-999.0,97,-99.99,,,0.00,76,weatherlink.com 1.10,2013-02-27 09:06:00,
2013-02-27 09:21:00,31.5,31.0,30.64,NNW,331,0.0,-999.0,97,-99.99,,,0.00,86,weatherlink.com 1.10,2013-02-27 09:21:00,
2013-02-27 09:36:00,31.9,31.0,30.64,NNW,331,0.0,-999.0,97,-99.99,,,0.00,109,weatherlink.com 1.10,2013-02-27 09:36:00,
2013-02-27 09:51:00,32.4,32.0,30.64,NNW,331,0.0,-999.0,97,-99.99,,,0.00,105,weatherlink.com 1.10,2013-02-27 09:51:00,
2013-02-27 10:06:00,32.4,32.0,30.64,NNW,331,0.0,-999.0,97,-99.99,,,0.00,114,weatherlink.com 1.10,2013-02-27 10:06:00,
2013-02-27 10:21:00,33.0,32.0,30.63,NNW,331,0.0,-999.0,97,-99.99,,,0.00,153,weatherlink.com 1.10,2013-02-27 10:21:00,
2013-02-27 10:36:00,33.6,33.0,30.63,NNW,331,0.0,-999.0,97,-99.99,,,0.00,216,weatherlink.com 1.10,2013-02-27 10:36:00,
2013-02-27 10:51:00,34.3,34.0,30.63,NNW,331,0.0,-999.0,98,-99.99,,,0.00,195,weatherlink.com 1.10,2013-02-27 10:51:00,
2013-02-27 11:06:00,34.5,34.0,30.63,NNW,331,1.0,-999.0,97,-99.99,,,0.00,171,weatherlink.com 1.10,2013-02-27 11:06:00,
2013-02-27 11:21:00,34.9,34.0,30.63,NNW,331,1.0,-999.0,98,-99.99,,,0.00,207,weatherlink.com 1.10,2013-02-27 11:21:00,
2013-02-27 11:36:00,36.5,36.0,30.62,NNW,331,0.0,-999.0,98,-99.99,,,0.00,207,weatherlink.com 1.10,2013-02-27 11:36:00,
2013-02-27 11:51:00,37.3,37.0,30.62,NNW,331,0.0,-999.0,98,-99.99,,,0.00,218,weatherlink.com 1.10,2013-02-27 11:51:00,
2013-02-27 12:07:00,37.9,37.0,30.62,NNW,331,0.0,-999.0,98,-99.99,,,0.00,237,weatherlink.com 1.10,2013-02-27 12:07:00,
2013-02-27 12:22:00,38.8,38.0,30.61,NNW,331,1.0,-999.0,98,-99.99,,,0.00,269,weatherlink.com 1.10,2013-02-27 12:22:00,
2013-02-27 12:37:00,39.7,39.0,30.61,ENE,69,1.0,-999.0,98,-99.99,,,0.00,359,weatherlink.com 1.10,2013-02-27 12:37:00,
2013-02-27 12:52:00,40.7,40.0,30.60,East,79,5.0,-999.0,98,-99.99,,,0.00,415,weatherlink.com 1.10,2013-02-27 12:52:00,
2013-02-27 13:07:00,41.9,41.0,30.59,East,79,1.0,-999.0,98,-99.99,,,0.00,406,weatherlink.com 1.10,2013-02-27 13:07:00,
2013-02-27 13:22:00,43.5,43.0,30.59,SE,128,5.0,-999.0,97,-99.99,,,0.00,399,weatherlink.com 1.10,2013-02-27 13:22:00,
2013-02-27 13:37:00,45.4,44.0,30.58,ESE,113,4.0,-999.0,94,-99.99,,,0.00,392,weatherlink.com 1.10,2013-02-27 13:37:00,
2013-02-27 13:52:00,47.8,44.0,30.58,ESE,113,4.0,-999.0,85,-99.99,,,0.00,376,weatherlink.com 1.10,2013-02-27 13:52:00,
2013-02-27 14:07:00,46.5,41.0,30.58,SE,135,9.0,-999.0,81,-99.99,,,0.00,359,weatherlink.com 1.10,2013-02-27 14:07:00,
2013-02-27 14:22:00,44.6,41.0,30.58,SE,140,7.0,-999.0,86,-99.99,,,0.00,329,weatherlink.com 1.10,2013-02-27 14:22:00,
2013-02-27 14:37:00,43.8,41.0,30.58,SE,134,8.0,-999.0,88,-99.99,,,0.00,313,weatherlink.com 1.10,2013-02-27 14:37:00,
2013-02-27 14:54:00,43.6,41.0,30.57,ESE,120,7.0,-999.0,89,-99.99,,,0.00,294,weatherlink.com 1.10,2013-02-27 14:54:00,
2013-02-27 15:07:00,43.3,40.0,30.57,SSE,158,7.0,-999.0,89,-99.99,,,0.00,262,weatherlink.com 1.10,2013-02-27 15:07:00,
2013-02-27 15:22:00,43.5,41.0,30.56,SE,145,10.0,-999.0,89,-99.99,,,0.00,244,weatherlink.com 1.10,2013-02-27 15:22:00,
2013-02-27 15:37:00,43.7,41.0,30.56,ESE,122,1.0,-999.0,89,-99.99,,,0.00,214,weatherlink.com 1.10,2013-02-27 15:37:00,
2013-02-27 15:52:00,43.7,41.0,30.56,SSE,151,4.0,-999.0,89,-99.99,,,0.00,186,weatherlink.com 1.10,2013-02-27 15:52:00,
2013-02-27 16:07:00,43.7,40.0,30.56,SE,132,9.0,-999.0,88,-99.99,,,0.00,151,weatherlink.com 1.10,2013-02-27 16:07:00,
2013-02-27 16:22:00,42.4,39.0,30.56,East,94,4.0,-999.0,89,-99.99,,,0.00,113,weatherlink.com 1.10,2013-02-27 16:22:00,
2013-02-27 16:37:00,41.9,39.0,30.56,ESE,115,0.0,-999.0,90,-99.99,,,0.00,81,weatherlink.com 1.10,2013-02-27 16:37:00,
2013-02-27 16:52:00,41.7,39.0,30.56,SE,144,2.0,-999.0,91,-99.99,,,0.00,54,weatherlink.com 1.10,2013-02-27 16:52:00,
2013-02-27 17:07:00,41.1,39.0,30.56,East,96,1.0,-999.0,91,-99.99,,,0.00,32,weatherlink.com 1.10,2013-02-27 17:07:00,
2013-02-27 17:22:00,40.0,38.0,30.56,ESE,111,2.0,-999.0,92,-99.99,,,0.00,21,weatherlink.com 1.10,2013-02-27 17:22:00,
2013-02-27 17:37:00,38.9,37.0,30.56,ESE,119,4.0,-999.0,93,-99.99,,,0.00,9,weatherlink.com 1.10,2013-02-27 17:37:00,
2013-02-27 17:52:00,38.2,37.0,30.56,SSE,154,5.0,-999.0,94,-99.99,,,0.00,0,weatherlink.com 1.10,2013-02-27 17:52:00,
2013-02-27 18:07:00,37.6,36.0,30.56,SE,125,1.0,-999.0,95,-99.99,,,0.00,0,weatherlink.com 1.10,2013-02-27 18:07:00,
2013-02-27 18:22:00,37.2,36.0,30.57,ESE,123,4.0,-999.0,95,-99.99,,,0.01,0,weatherlink.com 1.10,2013-02-27 18:22:00,
2013-02-27 18:37:00,37.3,36.0,30.57,SE,138,2.0,-999.0,96,-99.99,,,0.01,0,weatherlink.com 1.10,2013-02-27 18:37:00,
2013-02-27 19:07:00,37.1,36.0,30.58,SE,136,0.0,-999.0,96,-99.99,,,0.01,0,weatherlink.com 1.10,2013-02-27 19:07:00,
2013-02-27 19:22:00,36.2,35.0,30.58,SE,136,0.0,-999.0,96,-99.99,,,0.01,0,weatherlink.com 1.10,2013-02-27 19:22:00,
2013-02-27 19:37:00,35.8,35.0,30.58,SE,136,0.0,-999.0,96,-99.99,,,0.01,0,weatherlink.com 1.10,2013-02-27 19:37:00,
2013-02-27 19:52:00,35.8,35.0,30.58,SE,136,0.0,-999.0,96,-99.99,,,0.01,0,weatherlink.com 1.10,2013-02-27 19:52:00,
2013-02-27 20:07:00,36.0,35.0,30.58,SE,136,0.0,-999.0,97,-99.99,,,0.01,0,weatherlink.com 1.10,2013-02-27 20:07:00,
2013-02-27 20:22:00,36.1,35.0,30.57,SE,136,0.0,-999.0,97,-99.99,,,0.01,0,weatherlink.com 1.10,2013-02-27 20:22:00,
2013-02-27 20:37:00,36.2,36.0,30.58,SE,136,0.0,-999.0,97,-99.99,,,0.01,0,weatherlink.com 1.10,2013-02-27 20:37:00,
2013-02-27 20:52:00,36.3,36.0,30.58,SE,136,0.0,-999.0,97,-99.99,,,0.01,0,weatherlink.com 1.10,2013-02-27 20:52:00,
2013-02-27 21:07:00,36.5,36.0,30.57,SE,136,0.0,-999.0,97,-99.99,,,0.01,0,weatherlink.com 1.10,2013-02-27 21:07:00,
2013-02-27 21:22:00,36.5,36.0,30.57,SE,136,0.0,-999.0,97,-99.99,,,0.01,0,weatherlink.com 1.10,2013-02-27 21:22:00,
2013-02-27 21:37:00,36.4,36.0,30.57,SE,136,0.0,-999.0,97,-99.99,,,0.01,0,weatherlink.com 1.10,2013-02-27 21:37:00,
2013-02-27 21:52:00,35.6,35.0,30.58,SE,136,4.0,-999.0,96,-99.99,,,0.01,0,weatherlink.com 1.10,2013-02-27 21:52:00,
2013-02-27 22:07:00,35.1,34.0,30.58,SE,136,0.0,-999.0,97,-99.99,,,0.01,0,weatherlink.com 1.10,2013-02-27 22:07:00,
2013-02-27 22:22:00,35.1,34.0,30.58,SE,136,0.0,-999.0,97,-99.99,,,0.01,0,weatherlink.com 1.10,2013-02-27 22:22:00,
2013-02-27 22:38:00,35.1,34.0,30.58,SE,134,0.0,-999.0,97,-99.99,,,0.01,0,weatherlink.com 1.10,2013-02-27 22:38:00,
2013-02-27 22:53:00,34.9,34.0,30.57,SE,134,0.0,-999.0,97,-99.99,,,0.01,0,weatherlink.com 1.10,2013-02-27 22:53:00,
2013-02-27 23:08:00,34.7,34.0,30.57,SE,134,0.0,-999.0,97,-99.99,,,0.01,0,weatherlink.com 1.10,2013-02-27 23:08:00,
2013-02-27 23:23:00,34.5,34.0,30.56,SE,134,0.0,-999.0,97,-99.99,,,0.01,0,weatherlink.com 1.10,2013-02-27 23:23:00,
2013-02-27 23:38:00,34.3,34.0,30.56,NNW,329,1.0,-999.0,97,-99.99,,,0.01,0,weatherlink.com 1.10,2013-02-27 23:38:00,
2013-02-27 23:53:00,34.1,33.0,30.56,NNW,329,0.0,-999.0,97,-99.99,,,0.01,0,weatherlink.com 1.10,2013-02-27 23:53:00,